N264CP KF70-KSMO

Flight info

Callsign N264CP
Flight time N/A
Altitude 16000
Route PDZ V186 DARTS
Aircraft SF50/L-SDGRWY/L

Departure

Time 2026-05-08 01:40
Airport French Valley Airport (KF70)

Arrival

Time N/A
Airport Santa Monica Municipal Airport (KSMO)
Time Latitude Longitude Altitude Speed Heading
2026-05-08 01:25 33.58002 -117.12811 1355 ft 0 kts 116°
2026-05-08 01:36 33.58001 -117.12810 1355 ft 0 kts 115°
2026-05-08 01:36 33.57999 -117.12804 1354 ft 0 kts 105°
2026-05-08 01:36 33.57996 -117.12790 1357 ft 5 kts 154°
2026-05-08 01:37 33.57922 -117.12796 1355 ft 16 kts 190°
2026-05-08 01:37 33.57773 -117.12838 1354 ft 28 kts 193°
2026-05-08 01:37 33.57544 -117.12897 1357 ft 35 kts 192°
2026-05-08 01:37 33.57323 -117.12955 1355 ft 30 kts 192°
2026-05-08 01:38 33.57140 -117.13003 1354 ft 25 kts 192°
2026-05-08 01:38 33.56978 -117.13046 1352 ft 22 kts 194°
2026-05-08 01:38 33.56847 -117.13081 1353 ft 17 kts 193°
2026-05-08 01:38 33.56740 -117.13108 1354 ft 16 kts 193°
2026-05-08 01:39 33.56630 -117.13120 1352 ft 14 kts 130°
2026-05-08 01:39 33.56642 -117.13056 1354 ft 5 kts 16°
2026-05-08 01:39 33.56661 -117.13049 1354 ft 1 kts
2026-05-08 01:39 33.56935 -117.12979 1354 ft 79 kts 12°
2026-05-08 01:40 33.57711 -117.12775 1441 ft 140 kts 12°
2026-05-08 01:40 33.58667 -117.12493 1987 ft 135 kts 11°
2026-05-08 01:40 33.59645 -117.12219 2151 ft 156 kts 11°
2026-05-08 01:40 33.60772 -117.11921 2269 ft 170 kts 11°
2026-05-08 01:41 33.61865 -117.11715 2838 ft 151 kts 354°
2026-05-08 01:41 33.62807 -117.12162 3275 ft 144 kts 333°
2026-05-08 01:41 33.63722 -117.12619 3668 ft 141 kts 339°
2026-05-08 01:41 33.64633 -117.13012 4049 ft 139 kts 338°
2026-05-08 01:42 33.65545 -117.13403 4383 ft 138 kts 338°
2026-05-08 01:42 33.66447 -117.13784 4716 ft 139 kts 338°
2026-05-08 01:42 33.67393 -117.14189 4914 ft 144 kts 338°
2026-05-08 01:42 33.68330 -117.14582 5205 ft 142 kts 337°
2026-05-08 01:43 33.69268 -117.14984 5455 ft 144 kts 336°
2026-05-08 01:43 33.70209 -117.15380 5727 ft 143 kts 337°
2026-05-08 01:43 33.71148 -117.15780 5948 ft 145 kts 336°
2026-05-08 01:43 33.72109 -117.16185 6150 ft 146 kts 336°
2026-05-08 01:44 33.73055 -117.16589 6440 ft 143 kts 336°
2026-05-08 01:44 33.73989 -117.16984 6670 ft 143 kts 336°
2026-05-08 01:44 33.74951 -117.17396 6974 ft 149 kts 337°
2026-05-08 01:44 33.75908 -117.17796 7538 ft 144 kts 338°
2026-05-08 01:45 33.76850 -117.18208 8051 ft 145 kts 335°
2026-05-08 01:45 33.77662 -117.18924 8562 ft 148 kts 315°
2026-05-08 01:45 33.78231 -117.19966 9085 ft 152 kts 299°
2026-05-08 01:45 33.78686 -117.21105 9580 ft 155 kts 302°
2026-05-08 01:46 33.79188 -117.22286 10061 ft 158 kts 301°
2026-05-08 01:46 33.79675 -117.23462 10527 ft 160 kts 302°
2026-05-08 01:46 33.80175 -117.24670 10993 ft 163 kts 301°
2026-05-08 01:46 33.80682 -117.25900 11452 ft 166 kts 302°
2026-05-08 01:47 33.81195 -117.27149 11906 ft 168 kts 300°
2026-05-08 01:47 33.81746 -117.28469 11999 ft 181 kts 301°
2026-05-08 01:47 33.82301 -117.29820 11993 ft 187 kts 300°
2026-05-08 01:48 33.83614 -117.32992 12001 ft 227 kts 299°
2026-05-08 01:48 33.84331 -117.34736 12000 ft 237 kts 300°
2026-05-08 01:48 33.85061 -117.36515 11998 ft 243 kts 299°
2026-05-08 01:48 33.85818 -117.38350 11998 ft 246 kts 299°
2026-05-08 01:49 33.86581 -117.40207 12008 ft 248 kts 300°
2026-05-08 01:49 33.87349 -117.42075 12009 ft 249 kts 300°
2026-05-08 01:49 33.88119 -117.43946 12009 ft 250 kts 299°
2026-05-08 01:49 33.88889 -117.45823 12008 ft 250 kts 299°
2026-05-08 01:50 33.89660 -117.47701 12005 ft 250 kts 299°
2026-05-08 01:50 33.90432 -117.49574 12005 ft 250 kts 298°
2026-05-08 01:50 33.91209 -117.51452 12005 ft 250 kts 298°
2026-05-08 01:50 33.91963 -117.53341 11995 ft 250 kts 295°
2026-05-08 01:51 33.92596 -117.55297 11993 ft 251 kts 294°
2026-05-08 01:51 33.93224 -117.57258 11986 ft 251 kts 294°
2026-05-08 01:51 33.93862 -117.59221 11968 ft 252 kts 293°
2026-05-08 01:51 33.94498 -117.61184 11977 ft 251 kts 293°
2026-05-08 01:52 33.95134 -117.63145 11978 ft 251 kts 294°
2026-05-08 01:52 33.95770 -117.65101 11982 ft 250 kts 293°
2026-05-08 01:52 33.96402 -117.67053 11981 ft 250 kts 294°
2026-05-08 01:52 33.97029 -117.69002 11980 ft 249 kts 293°
2026-05-08 01:53 33.97661 -117.70944 11979 ft 249 kts 294°
2026-05-08 01:53 33.98289 -117.72887 11980 ft 247 kts 293°
2026-05-08 01:53 33.98883 -117.74724 11976 ft 225 kts 293°
2026-05-08 01:53 33.99436 -117.76444 11985 ft 219 kts 294°
2026-05-08 01:54 34.00012 -117.78213 11988 ft 238 kts 293°
2026-05-08 01:54 34.00631 -117.80140 11954 ft 254 kts 293°
2026-05-08 01:54 34.01292 -117.82189 11684 ft 270 kts 292°
2026-05-08 01:54 34.01987 -117.84348 11325 ft 283 kts 292°
2026-05-08 01:55 34.02705 -117.86588 10938 ft 288 kts 292°
2026-05-08 01:55 34.03427 -117.88832 10549 ft 285 kts 293°
2026-05-08 01:55 34.04131 -117.91023 10165 ft 278 kts 293°
2026-05-08 01:55 34.04823 -117.93181 9788 ft 274 kts 292°
2026-05-08 01:56 34.05506 -117.95305 9418 ft 264 kts 292°
2026-05-08 01:56 34.06138 -117.97273 9093 ft 240 kts 292°
2026-05-08 01:56 34.06725 -117.99108 8796 ft 230 kts 292°
2026-05-08 01:56 34.07295 -118.00883 8491 ft 224 kts 292°
2026-05-08 01:57 34.07853 -118.02633 8199 ft 223 kts 292°
2026-05-08 01:57 34.08413 -118.04378 7908 ft 224 kts 291°
2026-05-08 01:57 34.08979 -118.06146 7616 ft 228 kts 292°
2026-05-08 01:57 34.09546 -118.07917 7310 ft 225 kts 291°
2026-05-08 01:58 34.10106 -118.09678 7018 ft 224 kts 291°
2026-05-08 01:58 34.10666 -118.11427 6723 ft 223 kts 291°
2026-05-08 01:58 34.11221 -118.13171 6422 ft 222 kts 291°
2026-05-08 01:58 34.11773 -118.14901 6119 ft 220 kts 291°
2026-05-08 01:59 34.12321 -118.16620 5822 ft 219 kts 291°
2026-05-08 01:59 34.12863 -118.18329 5538 ft 217 kts 291°
2026-05-08 01:59 34.13406 -118.20036 5256 ft 218 kts 291°
2026-05-08 01:59 34.13952 -118.21748 4965 ft 218 kts 291°
2026-05-08 02:00 34.14482 -118.23424 4681 ft 206 kts 290°
2026-05-08 02:00 34.14751 -118.25043 4420 ft 191 kts 275°
2026-05-08 02:00 34.14683 -118.26612 4193 ft 185 kts 262°
2026-05-08 02:00 34.14322 -118.28071 4174 ft 183 kts 250°
2026-05-08 02:01 34.13672 -118.29429 4175 ft 190 kts 235°
2026-05-08 02:01 34.12777 -118.30625 4036 ft 197 kts 229°
2026-05-08 02:01 34.11850 -118.31832 3813 ft 193 kts 231°
2026-05-08 02:01 34.10950 -118.33008 3597 ft 190 kts 229°
2026-05-08 02:02 34.10050 -118.34178 3400 ft 191 kts 228°
2026-05-08 02:02 34.09144 -118.35349 3194 ft 191 kts 227°
2026-05-08 02:02 34.08247 -118.36510 3015 ft 187 kts 226°
2026-05-08 02:02 34.07391 -118.37617 2990 ft 183 kts 229°
2026-05-08 02:03 34.06473 -118.38814 2723 ft 199 kts 228°
2026-05-08 02:03 34.05563 -118.39985 2405 ft 182 kts 227°
2026-05-08 02:03 34.04741 -118.41100 1685 ft 179 kts 230°
2026-05-08 02:03 34.03974 -118.42304 1039 ft 176 kts 230°
2026-05-08 02:04 34.03137 -118.43288 628 ft 156 kts 222°
2026-05-08 02:04 34.02465 -118.44065 427 ft 114 kts 224°
2026-05-08 02:04 34.01990 -118.44647 204 ft 84 kts 224°
2026-05-08 02:04 34.01626 -118.45073 154 ft 63 kts 225°
2026-05-08 02:05 34.01422 -118.45319 145 ft 51 kts 224°